Weather observations for the past three days for
Rochester, Greater Rochester International Airport
Imperial (Metric)
Date Time (edt) Wind (mph) Vis. (mi.) Weather Sky Cond. Temperature (ºF) Relative Humidity Wind Chill (°F) Heat Index (°F) Pressure Precipitation (in)
Air Dwpt 6 hour altimeter (in) sea level (mb) 1 hr 3 hr 6 hr
Max. Min.
14 06:54 W 7 10.00 Mostly Cloudy BKN070 BKN090 BKN250 68 59 73% 29.87 1011.0
14 05:54 W 6 10.00 Mostly Cloudy FEW050 BKN070 BKN085 BKN250 66.9 57.9 73% 29.84 1010.1
14 04:54 NW 7 G 18 10.00 Partly Cloudy FEW065 SCT080 SCT250 70 57.9 66% 29.82 1009.7
14 03:54 NW 15 G 21 10.00 Mostly Cloudy SCT032 BKN075 BKN100 75 61 62% 77 29.81 1009.2
14 02:54 W 13 G 20 10.00 Mostly Cloudy BKN070 BKN090 77 59 54% 79 29.79 1008.7
14 01:54 W 3 10.00 Partly Cloudy FEW070 SCT250 71.1 59 82.9 71.1 66% 29.79 1008.5
14 00:54 SW 14 10.00 Partly Cloudy SCT250 75.9 57.9 54% 78 29.78 1008.3
13 23:54 SW 16 G 23 10.00 Mostly Cloudy BKN130 77 57 50% 79 29.78 1008.2
13 22:54 SW 15 G 23 10.00 Mostly Cloudy BKN090 BKN120 BKN140 79 57 47% 80 29.79 1008.5
13 21:54 SW 9 10.00 Mostly Cloudy FEW040 FEW080 BKN200 80.1 55.9 44% 80 29.8 1009.0
13 20:54 SW 13 G 21 10.00 Partly Cloudy FEW070 FEW100 FEW150 SCT180 81 57 44% 81 29.78 1008.5
13 19:54 SW 12 10.00 A Few Clouds FEW070 FEW200 82.9 57.9 87.1 82.9 43% 83 29.8 1009.0
13 18:54 SW 15 10.00 Mostly Cloudy FEW070 SCT100 BKN180 86 57.9 39% 85 29.8 1009.0
13 17:54 SW 18 G 28 10.00 Mostly Cloudy FEW040 FEW180 BKN250 87.1 57 36% 86 29.81 1009.4
13 16:54 SW 18 G 25 10.00 Mostly Cloudy FEW040 FEW080 BKN200 87.1 57.9 37% 86 29.82 1009.8
13 15:54 SW 16 10.00 Overcast FEW055 BKN110 OVC220 84.9 57.9 40% 84 29.86 1011.0
13 14:54 SW 21 10.00 Mostly Cloudy and Breezy FEW055 FEW110 SCT200 BKN250 87.1 57.9 37% 86 29.85 1010.6
13 13:54 W 24 G 35 10.00 Mostly Cloudy and Breezy FEW055 FEW110 SCT200 BKN250 84.9 57 86 66.9 39% 84 29.86 1011.2
13 12:54 W 17 G 23 10.00 Mostly Cloudy FEW050 SCT110 SCT200 BKN250 84.9 59 42% 85 29.88 1011.9
13 11:54 SW 20 G 25 10.00 Partly Cloudy FEW050 SCT200 SCT250 84 59 43% 84 29.9 1012.4
13 10:54 SW 13 10.00 Partly Cloudy FEW045 FEW070 SCT250 79 59 50% 80 29.9 1012.5
13 09:54 SW 12 10.00 Partly Cloudy FEW040 FEW070 SCT250 75 57.9 55% 78 29.91 1012.8
13 08:54 SW 9 10.00 Partly Cloudy FEW070 FEW160 SCT250 70 55.9 61% 29.92 1013.2
13 07:54 SW 10 10.00 Mostly Cloudy FEW070 BKN170 BKN250 66 54 66 55.9 65% 29.92 1013.4
13 06:54 SW 9 10.00 Mostly Cloudy FEW065 BKN080 BKN120 BKN250 61 53.1 75% 29.93 1013.6
13 05:54 SW 9 10.00 Mostly Cloudy SCT070 BKN080 BKN250 59 52 78% 29.93 1013.5
13 04:54 SW 9 10.00 Mostly Cloudy FEW070 SCT090 BKN250 57.9 51.1 78% 29.92 1013.4
13 03:54 SW 7 10.00 Partly Cloudy FEW150 SCT250 57 51.1 81% 29.93 1013.8
13 02:54 SW 6 10.00 Partly Cloudy SCT250 55.9 52 87% 29.94 1014.2
13 01:54 SW 5 10.00 Mostly Cloudy BKN250 57 52 73 57 83% 29.95 1014.3
13 00:54 S 3 10.00 Mostly Cloudy FEW180 BKN250 57 52 83% 29.96 1014.5
12 23:54 SW 3 10.00 Fair CLR 57.9 54 87% 29.97 1015.0
12 22:54 Calm 10.00 Fair CLR 62.1 53.1 73% 29.97 1015.0
12 21:54 SE 3 10.00 Partly Cloudy FEW150 SCT200 64.9 54 68% 29.97 1015.2
12 20:54 SE 6 10.00 A Few Clouds FEW150 FEW200 66.9 54 63% 29.98 1015.2
12 19:54 SW 3 10.00 A Few Clouds FEW250 73 48 75 69.1 41% 29.98 1015.2
12 18:54 W 6 10.00 Fair CLR 73.9 50 43% 29.98 1015.4
12 17:54 Vrbl 5 10.00 A Few Clouds FEW060 FEW250 75 48 39% 77 29.98 1015.6
12 16:54 Vrbl 3 10.00 Mostly Cloudy BKN060 75 48 39% 77 29.99 1015.9
12 15:54 Calm 10.00 Partly Cloudy SCT050 SCT250 75 50 42% 78 30.01 1016.3
12 14:54 Calm 10.00 Mostly Cloudy BKN055 73 50 44% 30.02 1016.6
12 13:54 SW 5 10.00 Partly Cloudy SCT049 SCT250 71.1 51.1 71.1 55 49% 30.03 1017.0
12 12:54 Calm 10.00 Partly Cloudy FEW040 SCT250 69.1 52 55% 30.05 1017.6
12 11:54 W 6 10.00 Mostly Cloudy SCT042 BKN250 66 51.1 59% 30.05 1017.7
12 10:54 SW 6 10.00 Mostly Cloudy FEW032 SCT039 BKN250 64.9 52 63% 30.05 1018.0
12 09:54 SW 5 10.00 Mostly Cloudy FEW046 BKN250 63 52 68% 30.06 1018.3
12 08:54 Vrbl 3 10.00 Mostly Cloudy FEW043 SCT070 BKN250 60.1 54 80% 30.06 1018.2
12 07:54 SW 3 10.00 Mostly Cloudy BKN043 BKN070 BKN250 55 54 55 48 96% 30.06 1018.3
12 06:54 Calm 4.00 Fog/Mist FEW001 SCT070 BKN250 52 51.1 97% 30.05 1018.0
12 05:54 SW 5 0.50 Fog BKN001 BKN070 BKN250 48.9 46 90% 48 30.04 1017.7
12 04:54 Calm 10.00 Mostly Cloudy FEW070 BKN250 50 46.9 89% 30.02 1017.1
12 03:54 Calm 9.00 A Few Clouds FEW080 51.1 48 89% 30.03 1017.3
12 02:54 N 3 10.00 A Few Clouds FEW080 52 48.9 89% 30.03 1017.2
12 01:54 S 3 10.00 Partly Cloudy FEW080 SCT250 54 51.1 59 54 90% 30.03 1017.2
12 00:54 Calm 10.00 Partly Cloudy FEW044 SCT070 55.9 51.1 84% 30.04 1017.4
11 23:54 S 6 10.00 Overcast OVC045 57 52 83% 30.04 1017.6
11 22:54 Calm 10.00 Overcast OVC043 57 52 83% 30.04 1017.7
11 21:54 S 3 10.00 Overcast OVC039 57.9 52 81% 30.04 1017.5
11 20:54 Calm 10.00 Overcast BKN030 OVC040 57.9 51.1 78% 30.03 1017.2
11 19:54 Calm 10.00 Overcast FEW015 BKN032 OVC039 59 51.1 60.1 57 75% 30.02 1016.9
11 18:54 Calm 10.00 Overcast BKN030 OVC039 59 51.1 75% 30.01 1016.4
11 17:54 NE 3 10.00 Overcast FEW015 BKN030 OVC039 59 51.1 75% 30.01 1016.4
11 16:54 NE 6 10.00 Overcast FEW015 BKN026 OVC035 57.9 51.1 78% 30.01 1016.5
11 15:54 NE 9 10.00 Overcast FEW015 OVC026 57.9 51.1 78% 30.01 1016.5
11 14:54 N 10 10.00 Overcast FEW015 OVC028 60.1 50 70% 30.01 1016.5
11 13:54 E 5 10.00 Overcast FEW013 SCT024 OVC039 60.1 51.1 61 54 72% 30.01 1016.5 0.01
11 12:54 N 5 10.00 Overcast FEW013 SCT022 OVC036 57.9 52 81% 30.01 1016.7
11 11:54 Vrbl 3 10.00 Overcast SCT010 BKN016 OVC025 59 52 78% 30.01 1016.6
11 10:54 NE 7 3.00 Light Drizzle Fog/Mist OVC010 55 51.1 87% 30.01 1016.6 0.01 0.01
11 09:54 NE 9 3.00 Light Drizzle Fog/Mist OVC007 54 51.1 90% 30 1016.3
11 08:54 N 9 6.00 Light Drizzle Fog/Mist BKN010 OVC025 54 50 87% 29.98 1015.7
11 07:54 W 3 10.00 Overcast OVC024 55 50 55 55 83% 29.96 1015.0
Date Time (edt) Wind (mph) Vis. (mi.) Weather Sky Cond. Air Dwpt Max. Min. Relative Humidity Wind Chill (°F) Heat Index (°F) altimeter (in) sea level (mb) 1 hr 3 hr 6 hr
6 hour
Temperature (ºF) Pressure Precipitation (in)